﻿_id,Date/Time,O3 UVA ppm,NO Chemiluminescence ppm,NO2 calc Chemiluminescence ppm,NOx Chemiluminescence ppm,SO2 UVF ppm,CO GPC ppm
1,2013-01-12T00:10:00,0.027,0,0.001,0.001,"",""
2,2013-01-12T00:20:00,,0,0.001,0.001,"",""
3,2013-01-12T00:30:00,,0,0.001,0.001,"",""
4,2013-01-12T00:40:00,,0,0.001,0.001,"",""
5,2013-01-12T00:50:00,,0,0.001,0.001,"",""
6,2013-01-12T01:00:00,0.027,0,0.001,0.001,"",""
7,2013-01-12T01:10:00,0.027,0,0,0,"",""
8,2013-01-12T01:20:00,0.027,,,,"",""
9,2013-01-12T01:30:00,0.027,,,,"",""
10,2013-01-12T01:40:00,0.027,,,,"",""
11,2013-01-12T01:50:00,0.027,,,,"",""
12,2013-01-12T02:00:00,0.027,0.001,0,0.001,"",""
13,2013-01-12T02:10:00,0.027,0,0.001,0.001,"",""
14,2013-01-12T02:20:00,0.027,0,0.001,0.001,"",""
15,2013-01-12T02:30:00,0.027,0,0.001,0.001,"",""
16,2013-01-12T02:40:00,0.027,0,0.001,0.001,,
17,2013-01-12T02:50:00,0.027,0,0,0,,
18,2013-01-12T03:00:00,0.027,0,0,0,,
19,2013-01-12T03:10:00,0.027,0,0,0,,
20,2013-01-12T03:20:00,0.027,0,0.001,0.001,,
21,2013-01-12T03:30:00,0.027,0,0.001,0.001,,
22,2013-01-12T03:40:00,0.027,0,0.001,0.001,,
23,2013-01-12T03:50:00,0.027,0,0.001,0.001,,
24,2013-01-12T04:00:00,0.028,0,0,0,,
25,2013-01-12T04:10:00,0.028,0,0,0,,
26,2013-01-12T04:20:00,0.028,0,0,0,,
27,2013-01-12T04:30:00,0.028,0,0.001,0.001,,
28,2013-01-12T04:40:00,0.028,0,0,0,,
29,2013-01-12T04:50:00,0.028,0,0,0,,
30,2013-01-12T05:00:00,0.028,0,0.001,0.001,,
31,2013-01-12T05:10:00,0.028,0,0.001,0.001,,
32,2013-01-12T05:20:00,0.028,0,0.001,0.001,,
33,2013-01-12T05:30:00,0.029,0,0.001,0.001,,
34,2013-01-12T05:40:00,0.029,0,0.001,0.001,,
35,2013-01-12T05:50:00,0.03,0,0.001,0.001,,
36,2013-01-12T06:00:00,0.03,0,0,0,,
37,2013-01-12T06:10:00,0.03,0,0,0,,
38,2013-01-12T06:20:00,0.03,0,0.001,0.001,,
39,2013-01-12T06:30:00,0.03,0,0.001,0.001,,
40,2013-01-12T06:40:00,0.029,0,0.001,0.001,,
41,2013-01-12T06:50:00,0.029,0,0.001,0.001,,
42,2013-01-12T07:00:00,0.029,0,0.001,0.001,,
43,2013-01-12T07:10:00,0.029,0,0.001,0.001,,
44,2013-01-12T07:20:00,0.029,0,0.002,0.002,,
45,2013-01-12T07:30:00,0.029,0,0.002,0.002,,
46,2013-01-12T07:40:00,0.029,0,0.002,0.002,,
47,2013-01-12T07:50:00,0.028,0,0.002,0.002,,
48,2013-01-12T08:00:00,0.028,0,0.002,0.002,,
49,2013-01-12T08:10:00,0.027,0,0.003,0.003,,
50,2013-01-12T08:20:00,0.026,0,0.003,0.003,,
51,2013-01-12T08:30:00,0.026,0,0.003,0.003,,
52,2013-01-12T08:40:00,0.026,0,0.003,0.003,,
53,2013-01-12T08:50:00,0.021,0,0.005,0.005,,
54,2013-01-12T09:00:00,0.015,0.001,0.013,0.014,,
55,2013-01-12T09:10:00,0.013,0.001,0.014,0.015,,
56,2013-01-12T09:20:00,0.016,0.001,0.013,0.014,,
57,2013-01-12T09:30:00,0.017,0.001,0.009,0.01,,
58,2013-01-12T09:40:00,0.021,0.001,0.006,0.007,,
59,2013-01-12T09:50:00,0.024,0,0.004,0.004,,
60,2013-01-12T10:00:00,0.021,0,0.005,0.005,,
61,2013-01-12T10:10:00,0.019,0.001,0.006,0.007,,
62,2013-01-12T10:20:00,0.02,0.001,0.006,0.007,,
63,2013-01-12T10:30:00,0.021,0.001,0.005,0.006,,
64,2013-01-12T10:40:00,0.023,0.001,0.003,0.004,,
65,2013-01-12T10:50:00,0.025,0.001,0.002,0.003,,
66,2013-01-12T11:00:00,0.025,0,0.003,0.003,,
67,2013-01-12T11:10:00,0.031,0,0.003,0.003,,
68,2013-01-12T11:20:00,0.031,0,0.003,0.003,,
69,2013-01-12T11:30:00,0.029,0,0.004,0.004,,
70,2013-01-12T11:40:00,0.028,0,0.004,0.004,,
71,2013-01-12T11:50:00,0.027,0,0.002,0.002,,
72,2013-01-12T12:00:00,0.027,0,0.003,0.003,,
73,2013-01-12T12:10:00,0.028,0,0.003,0.003,,
74,2013-01-12T12:20:00,0.028,0,0.003,0.003,,
75,2013-01-12T12:30:00,0.029,0,0.003,0.003,,
76,2013-01-12T12:40:00,0.029,0,0.002,0.002,,
77,2013-01-12T12:50:00,0.029,0,0.002,0.002,,
78,2013-01-12T13:00:00,0.029,0,0.002,0.002,,
79,2013-01-12T13:10:00,0.03,0,0.003,0.003,,
80,2013-01-12T13:20:00,0.03,0,0.002,0.002,,
81,2013-01-12T13:30:00,0.029,0,0.002,0.002,,
82,2013-01-12T13:40:00,0.027,0,0.003,0.003,,
83,2013-01-12T13:50:00,0.029,0,0.005,0.005,,
84,2013-01-12T14:00:00,0.027,0,0.004,0.004,,
85,2013-01-12T14:10:00,0.023,0,0.005,0.005,,
86,2013-01-12T14:20:00,0.027,0,0.005,0.005,,
87,2013-01-12T14:30:00,0.03,0,0.004,0.004,,
88,2013-01-12T14:40:00,0.03,0,0.003,0.003,,
89,2013-01-12T14:50:00,0.032,0,0.003,0.003,,
90,2013-01-12T15:00:00,0.032,0,0.002,0.002,,
91,2013-01-12T15:10:00,0.03,0,0.002,0.002,,
92,2013-01-12T15:20:00,0.03,0,0.003,0.003,,
93,2013-01-12T15:30:00,0.03,0,0.003,0.003,,
94,2013-01-12T15:40:00,0.031,0,0.003,0.003,,
95,2013-01-12T15:50:00,0.032,0,0.003,0.003,,
96,2013-01-12T16:00:00,0.032,0,0.002,0.002,,
97,2013-01-12T16:10:00,0.033,0,0.002,0.002,,
98,2013-01-12T16:20:00,0.032,0,0.002,0.002,,
99,2013-01-12T16:30:00,0.033,0,0.002,0.002,,
100,2013-01-12T16:40:00,0.033,0,0.002,0.002,,
101,2013-01-12T16:50:00,0.035,0,0.003,0.003,,
102,2013-01-12T17:00:00,0.036,0,0.002,0.002,,
103,2013-01-12T17:10:00,0.035,0,0.002,0.002,,
104,2013-01-12T17:20:00,0.035,0,0.002,0.002,,
105,2013-01-12T17:30:00,0.034,0,0.002,0.002,,
106,2013-01-12T17:40:00,0.034,0,0.002,0.002,,
107,2013-01-12T17:50:00,0.033,0,0.002,0.002,,
108,2013-01-12T18:00:00,0.033,0,0.002,0.002,,
109,2013-01-12T18:10:00,0.033,0,0.002,0.002,,
110,2013-01-12T18:20:00,0.033,0,0.002,0.002,,
111,2013-01-12T18:30:00,0.031,0,0.003,0.003,,
112,2013-01-12T18:40:00,0.03,0,0.003,0.003,,
113,2013-01-12T18:50:00,0.03,0,0.003,0.003,,
114,2013-01-12T19:00:00,0.029,0,0.004,0.004,,
115,2013-01-12T19:10:00,0.028,0,0.005,0.005,,
116,2013-01-12T19:20:00,0.028,0,0.005,0.005,,
117,2013-01-12T19:30:00,0.025,0,0.006,0.006,,
118,2013-01-12T19:40:00,0.025,0,0.007,0.007,,
119,2013-01-12T19:50:00,0.028,0,0.005,0.005,,
120,2013-01-12T20:00:00,0.028,0,0.004,0.004,,
121,2013-01-12T20:10:00,0.029,0,0.004,0.004,,
122,2013-01-12T20:20:00,0.029,0,0.004,0.004,,
123,2013-01-12T20:30:00,0.027,0,0.006,0.006,,
124,2013-01-12T20:40:00,0.028,0,0.004,0.004,,
125,2013-01-12T20:50:00,0.027,0,0.004,0.004,,
126,2013-01-12T21:00:00,0.03,0,0.003,0.003,,
127,2013-01-12T21:10:00,0.029,0,0.003,0.003,,
128,2013-01-12T21:20:00,0.03,0,0.003,0.003,,
129,2013-01-12T21:30:00,0.031,0,0.003,0.003,,
130,2013-01-12T21:40:00,0.032,0,0.002,0.002,,
131,2013-01-12T21:50:00,0.032,0,0.002,0.002,,
132,2013-01-12T22:00:00,0.033,0,0.001,0.001,,
133,2013-01-12T22:10:00,0.032,0,0.001,0.001,,
134,2013-01-12T22:20:00,0.033,0,0.002,0.002,,
135,2013-01-12T22:30:00,0.032,0,0.002,0.002,,
136,2013-01-12T22:40:00,0.034,-0.001,0.002,0.001,,
137,2013-01-12T22:50:00,0.032,-0.001,0.002,0.001,,
138,2013-01-12T23:00:00,0.029,0,0.001,0.001,,
139,2013-01-12T23:10:00,0.023,0,0.005,0.005,,
140,2013-01-12T23:20:00,0.024,0,0.007,0.007,,
141,2013-01-12T23:30:00,0.024,0,0.007,0.007,,
142,2013-01-12T23:40:00,0.022,0,0.006,0.006,,
143,2013-01-12T23:50:00,0.019,0,0.008,0.008,,
144,2013-02-12T00:00:00,0.018,0,0.008,0.008,,
145,2013-02-12T00:10:00,0.02,0,0.007,0.007,,
146,2013-02-12T00:20:00,0.02,0,0.005,0.005,,
147,2013-02-12T00:30:00,0.02,0,0.004,0.004,,
148,2013-02-12T00:40:00,0.02,0,0.004,0.004,,
149,2013-02-12T00:50:00,0.022,0,0.004,0.004,,
150,2013-02-12T01:00:00,0.024,0,0.004,0.004,,
151,2013-02-12T01:10:00,0.022,0,0.004,0.004,,
152,2013-02-12T01:20:00,0.021,0,0.004,0.004,,
153,2013-02-12T01:30:00,0.022,0,0.004,0.004,,
154,2013-02-12T01:40:00,0.024,0,0.003,0.003,,
155,2013-02-12T01:50:00,0.025,0,0.002,0.002,,
156,2013-02-12T02:00:00,0.025,0,0.002,0.002,,
157,2013-02-12T02:10:00,0.027,0,0.002,0.002,,
158,2013-02-12T02:20:00,0.027,0,0.002,0.002,,
159,2013-02-12T02:30:00,0.026,0,0.002,0.002,,
160,2013-02-12T02:40:00,0.025,0,0.002,0.002,,
161,2013-02-12T02:50:00,0.026,0,0.003,0.003,,
162,2013-02-12T03:00:00,0.026,0,0.002,0.002,,
163,2013-02-12T03:10:00,0.022,-0.001,0.003,0.002,,
164,2013-02-12T03:20:00,0.021,-0.001,0.003,0.002,,
165,2013-02-12T03:30:00,0.023,-0.001,0.003,0.002,,
166,2013-02-12T03:40:00,0.023,0,0.002,0.002,,
167,2013-02-12T03:50:00,0.025,0,0.002,0.002,,
168,2013-02-12T04:00:00,0.027,0,0.002,0.002,,
169,2013-02-12T04:10:00,0.026,0,0.002,0.002,,
170,2013-02-12T04:20:00,0.024,0,0.002,0.002,,
171,2013-02-12T04:30:00,0.026,0,0.002,0.002,,
172,2013-02-12T04:40:00,0.025,0,0.002,0.002,,
173,2013-02-12T04:50:00,0.025,0,0.002,0.002,,
174,2013-02-12T05:00:00,0.026,0,0.002,0.002,,
175,2013-02-12T05:10:00,0.026,0,0.002,0.002,,
176,2013-02-12T05:20:00,0.024,0,0.003,0.003,,
177,2013-02-12T05:30:00,0.024,0,0.004,0.004,,
178,2013-02-12T05:40:00,0.025,0,0.005,0.005,,
179,2013-02-12T05:50:00,0.026,0,0.004,0.004,,
180,2013-02-12T06:00:00,0.027,0,0.004,0.004,,
181,2013-02-12T06:10:00,0.024,0,0.004,0.004,,
182,2013-02-12T06:20:00,0.011,0.001,0.012,0.013,,
183,2013-02-12T06:30:00,0.004,0.018,0.021,0.039,,
184,2013-02-12T06:40:00,0.004,0.02,0.023,0.043,,
185,2013-02-12T06:50:00,0.005,0.023,0.023,0.046,,
186,2013-02-12T07:00:00,0.005,0.025,0.024,0.049,,
187,2013-02-12T07:10:00,0.007,0.024,0.024,0.048,,
188,2013-02-12T07:20:00,0.008,0.018,0.022,0.04,,
189,2013-02-12T07:30:00,0.009,0.016,0.021,0.037,,
190,2013-02-12T07:40:00,0.008,0.02,0.022,0.042,,
191,2013-02-12T07:50:00,0.007,0.025,0.025,0.05,,
192,2013-02-12T08:00:00,0.008,0.025,0.025,0.05,,
193,2013-02-12T08:10:00,0.008,0.029,0.027,0.056,,
194,2013-02-12T08:20:00,0.007,0.034,0.029,0.063,,
195,2013-02-12T08:30:00,0.007,0.035,0.03,0.065,,
196,2013-02-12T08:40:00,0.009,0.037,0.033,0.07,,
197,2013-02-12T08:50:00,0.01,0.036,0.032,0.068,,
198,2013-02-12T09:00:00,0.012,0.032,0.032,0.064,,
199,2013-02-12T09:10:00,0.015,0.027,0.032,0.059,,
200,2013-02-12T09:20:00,0.016,0.024,0.033,0.057,,
201,2013-02-12T09:30:00,0.017,0.023,0.032,0.055,,
202,2013-02-12T09:40:00,0.019,0.021,0.031,0.052,,
203,2013-02-12T09:50:00,0.021,0.017,0.03,0.047,,
204,2013-02-12T10:00:00,0.025,0.014,0.027,0.041,,
205,2013-02-12T10:10:00,0.027,0.011,0.025,0.036,,
206,2013-02-12T10:20:00,0.03,0.01,0.024,0.034,,
207,2013-02-12T10:30:00,0.028,0.009,0.023,0.032,,
208,2013-02-12T10:40:00,0.03,0.008,0.021,0.029,,
209,2013-02-12T10:50:00,0.033,0.008,0.015,0.023,,
210,2013-02-12T11:00:00,0.033,0.006,0.014,0.02,,
211,2013-02-12T11:10:00,0.036,0.005,0.014,0.019,,
212,2013-02-12T11:20:00,0.038,0.004,0.012,0.016,,
213,2013-02-12T11:30:00,0.039,0.003,0.012,0.015,,
214,2013-02-12T11:40:00,0.04,0.003,0.012,0.015,,
215,2013-02-12T11:50:00,0.041,0.003,0.011,0.014,,
216,2013-02-12T12:00:00,0.041,0.003,0.011,0.014,,
217,2013-02-12T12:10:00,0.043,0.002,0.01,0.012,,
218,2013-02-12T12:20:00,0.043,0.002,0.008,0.01,,
219,2013-02-12T12:30:00,0.045,0.001,0.008,0.009,,
220,2013-02-12T12:40:00,0.046,0.001,0.007,0.008,,
221,2013-02-12T12:50:00,0.046,0.001,0.007,0.008,,
222,2013-02-12T13:00:00,0.044,0.001,0.007,0.008,,
223,2013-02-12T13:10:00,0.042,0.001,0.007,0.008,,
224,2013-02-12T13:20:00,0.043,0.001,0.007,0.008,,
225,2013-02-12T13:30:00,0.042,0.001,0.007,0.008,,
226,2013-02-12T13:40:00,0.041,0.001,0.007,0.008,,
227,2013-02-12T13:50:00,0.04,0.001,0.007,0.008,,
228,2013-02-12T14:00:00,0.04,0.001,0.007,0.008,,
229,2013-02-12T14:10:00,0.04,0.001,0.007,0.008,,
230,2013-02-12T14:20:00,0.038,0.001,0.007,0.008,,
231,2013-02-12T14:30:00,0.039,0.001,0.008,0.009,,
232,2013-02-12T14:40:00,0.039,0.001,0.008,0.009,,
233,2013-02-12T14:50:00,0.036,0.001,0.008,0.009,,
234,2013-02-12T15:00:00,0.04,0.001,0.007,0.008,,
235,2013-02-12T15:10:00,0.038,0.001,0.007,0.008,,
236,2013-02-12T15:20:00,0.036,0.001,0.009,0.01,,
237,2013-02-12T15:30:00,0.038,0.001,0.01,0.011,,
238,2013-02-12T15:40:00,0.038,0.001,0.009,0.01,,
239,2013-02-12T15:50:00,0.036,0.001,0.008,0.009,,
240,2013-02-12T16:00:00,0.037,0.001,0.007,0.008,,
241,2013-02-12T16:10:00,0.037,0.001,0.006,0.007,,
242,2013-02-12T16:20:00,0.035,0.001,0.006,0.007,,
243,2013-02-12T16:30:00,0.035,0.001,0.006,0.007,,
244,2013-02-12T16:40:00,0.035,0.001,0.006,0.007,,
245,2013-02-12T16:50:00,0.035,0.001,0.005,0.006,,
246,2013-02-12T17:00:00,0.036,0.001,0.005,0.006,,
247,2013-02-12T17:10:00,0.038,0,0.006,0.006,,
248,2013-02-12T17:20:00,0.036,0,0.006,0.006,,
249,2013-02-12T17:30:00,0.039,0,0.005,0.005,,
250,2013-02-12T17:40:00,0.035,0,0.005,0.005,,
251,2013-02-12T17:50:00,0.032,0,0.005,0.005,,
252,2013-02-12T18:00:00,0.03,0,0.005,0.005,,
253,2013-02-12T18:10:00,0.031,0,0.005,0.005,,
254,2013-02-12T18:20:00,0.028,0,0.005,0.005,,
255,2013-02-12T18:30:00,0.027,0,0.006,0.006,,
256,2013-02-12T18:40:00,0.025,0,0.007,0.007,,
257,2013-02-12T18:50:00,0.025,0,0.007,0.007,,
258,2013-02-12T19:00:00,0.025,0,0.007,0.007,,
259,2013-02-12T19:10:00,0.021,0,0.008,0.008,,
260,2013-02-12T19:20:00,0.02,0,0.009,0.009,,
261,2013-02-12T19:30:00,0.019,0,0.009,0.009,,
262,2013-02-12T19:40:00,0.017,0,0.01,0.01,,
263,2013-02-12T19:50:00,0.013,0,0.012,0.012,,
264,2013-02-12T20:00:00,0.013,0,0.015,0.015,,
265,2013-02-12T20:10:00,0.014,0,0.015,0.015,,
266,2013-02-12T20:20:00,0.015,0,0.014,0.014,,
267,2013-02-12T20:30:00,0.014,0,0.013,0.013,,
268,2013-02-12T20:40:00,0.014,0,0.014,0.014,,
269,2013-02-12T20:50:00,0.017,0,0.01,0.01,,
270,2013-02-12T21:00:00,0.018,0,0.009,0.009,,
271,2013-02-12T21:10:00,0.017,0.001,0.009,0.01,,
272,2013-02-12T21:20:00,0.02,0,0.006,0.006,,
273,2013-02-12T21:30:00,0.018,0,0.007,0.007,,
274,2013-02-12T21:40:00,0.016,0,0.009,0.009,,
275,2013-02-12T21:50:00,0.018,0,0.008,0.008,,
276,2013-02-12T22:00:00,0.019,0,0.006,0.006,,
277,2013-02-12T22:10:00,0.019,0,0.005,0.005,,
278,2013-02-12T22:20:00,0.019,0,0.005,0.005,,
279,2013-02-12T22:30:00,0.02,0,0.005,0.005,,
280,2013-02-12T22:40:00,0.02,0,0.004,0.004,,
281,2013-02-12T22:50:00,0.023,0,0.004,0.004,,
282,2013-02-12T23:00:00,0.021,0,0.004,0.004,,
283,2013-02-12T23:10:00,0.021,0,0.004,0.004,,
284,2013-02-12T23:20:00,0.021,0,0.004,0.004,,
285,2013-02-12T23:30:00,0.02,0,0.004,0.004,,
286,2013-02-12T23:40:00,0.02,0,0.003,0.003,,
287,2013-02-12T23:50:00,0.02,0,0.004,0.004,,
288,2013-03-12T00:00:00,0.021,0,0.003,0.003,,
289,2013-03-12T00:10:00,0.02,0,0.003,0.003,,
290,2013-03-12T00:20:00,,0,0.003,0.003,,
291,2013-03-12T00:30:00,,0,0.003,0.003,,
292,2013-03-12T00:40:00,,0,0.003,0.003,,
293,2013-03-12T00:50:00,,0,0.003,0.003,,
294,2013-03-12T01:00:00,0.019,0,0.003,0.003,,
295,2013-03-12T01:10:00,0.02,0,0.003,0.003,,
296,2013-03-12T01:20:00,0.019,,,,,
297,2013-03-12T01:30:00,0.02,,,,,
298,2013-03-12T01:40:00,0.021,,,,,
299,2013-03-12T01:50:00,0.018,,,,,
300,2013-03-12T02:00:00,0.019,0,0.003,0.003,,
301,2013-03-12T02:10:00,0.019,0,0.003,0.003,,
302,2013-03-12T02:20:00,0.019,0,0.003,0.003,,
303,2013-03-12T02:30:00,0.017,0,0.003,0.003,,
304,2013-03-12T02:40:00,0.017,0,0.003,0.003,,
305,2013-03-12T02:50:00,0.017,0,0.003,0.003,,
306,2013-03-12T03:00:00,0.016,0,0.003,0.003,,
307,2013-03-12T03:10:00,0.017,0,0.003,0.003,,
308,2013-03-12T03:20:00,0.016,0,0.003,0.003,,
309,2013-03-12T03:30:00,0.015,0,0.004,0.004,,
310,2013-03-12T03:40:00,0.016,0,0.004,0.004,,
311,2013-03-12T03:50:00,0.015,0,0.004,0.004,,
312,2013-03-12T04:00:00,0.014,0,0.004,0.004,,
313,2013-03-12T04:10:00,0.014,0,0.004,0.004,,
314,2013-03-12T04:20:00,0.014,0,0.004,0.004,,
315,2013-03-12T04:30:00,0.013,0,0.004,0.004,,
316,2013-03-12T04:40:00,0.014,0,0.004,0.004,,
317,2013-03-12T04:50:00,0.014,0,0.004,0.004,,
318,2013-03-12T05:00:00,0.011,0,0.004,0.004,,
319,2013-03-12T05:10:00,0.008,0,0.007,0.007,,
320,2013-03-12T05:20:00,0.007,0,0.01,0.01,,
321,2013-03-12T05:30:00,0.007,0.001,0.01,0.011,,
322,2013-03-12T05:40:00,0.006,0.002,0.015,0.017,,
323,2013-03-12T05:50:00,0.003,0.009,0.019,0.028,,
324,2013-03-12T06:00:00,0.004,0.01,0.018,0.028,,
325,2013-03-12T06:10:00,0.003,0.022,0.021,0.043,,
326,2013-03-12T06:20:00,0.004,0.017,0.019,0.036,,
327,2013-03-12T06:30:00,0.004,0.016,0.018,0.034,,
328,2013-03-12T06:40:00,0.003,0.02,0.02,0.04,,
329,2013-03-12T06:50:00,0.004,0.027,0.021,0.048,,
330,2013-03-12T07:00:00,0.005,0.019,0.02,0.039,,
331,2013-03-12T07:10:00,0.005,0.023,0.021,0.044,,
332,2013-03-12T07:20:00,0.006,0.023,0.023,0.046,,
333,2013-03-12T07:30:00,0.006,0.022,0.023,0.045,,
334,2013-03-12T07:40:00,0.008,0.024,0.021,0.045,,
335,2013-03-12T07:50:00,0.009,0.024,0.021,0.045,,
336,2013-03-12T08:00:00,0.011,0.022,0.022,0.044,,
337,2013-03-12T08:10:00,0.01,0.019,0.022,0.041,,
338,2013-03-12T08:20:00,0.012,0.019,0.023,0.042,,
339,2013-03-12T08:30:00,0.014,0.017,0.022,0.039,,
340,2013-03-12T08:40:00,0.015,0.015,0.02,0.035,,
341,2013-03-12T08:50:00,0.017,0.014,0.02,0.034,,
342,2013-03-12T09:00:00,0.017,0.014,0.018,0.032,,
343,2013-03-12T09:10:00,0.018,0.011,0.018,0.029,,
344,2013-03-12T09:20:00,0.022,0.006,0.015,0.021,,
345,2013-03-12T09:30:00,0.023,0.006,0.015,0.021,,
346,2013-03-12T09:40:00,0.024,0.006,0.015,0.021,,
347,2013-03-12T09:50:00,0.025,0.006,0.012,0.018,,
348,2013-03-12T10:00:00,0.025,0.005,0.013,0.018,,
349,2013-03-12T10:10:00,0.023,0.005,0.013,0.018,,
350,2013-03-12T10:20:00,0.02,0.003,0.017,0.02,,
351,2013-03-12T10:30:00,0.016,0.002,0.017,0.019,,
352,2013-03-12T10:40:00,0.016,0.002,0.016,0.018,,
353,2013-03-12T10:50:00,0.019,0.007,0.014,0.021,,
354,2013-03-12T11:00:00,0.02,0.007,0.013,0.02,,
355,2013-03-12T11:10:00,0.02,0.005,0.016,0.021,,
356,2013-03-12T11:20:00,0.023,0.004,0.014,0.018,,
357,2013-03-12T11:30:00,0.024,0.004,0.013,0.017,,
358,2013-03-12T11:40:00,0.025,0.004,0.012,0.016,,
359,2013-03-12T11:50:00,0.028,0.004,0.011,0.015,,
360,2013-03-12T12:00:00,0.03,0.004,0.011,0.015,,
361,2013-03-12T12:10:00,0.032,0.004,0.012,0.016,,
362,2013-03-12T12:20:00,0.033,0.004,0.012,0.016,,
363,2013-03-12T12:30:00,0.034,0.004,0.011,0.015,,
364,2013-03-12T12:40:00,0.034,0.003,0.012,0.015,,
365,2013-03-12T12:50:00,0.035,0.003,0.012,0.015,,
366,2013-03-12T13:00:00,0.035,0.003,0.012,0.015,,
367,2013-03-12T13:10:00,0.035,0.002,0.012,0.014,,
368,2013-03-12T13:20:00,0.033,0.001,0.013,0.014,,
369,2013-03-12T13:30:00,0.033,0.001,0.015,0.016,,
370,2013-03-12T13:40:00,0.034,0.001,0.012,0.013,,
371,2013-03-12T13:50:00,0.036,0.001,0.007,0.008,,
372,2013-03-12T14:00:00,0.033,0.001,0.008,0.009,,
373,2013-03-12T14:10:00,0.031,0.001,0.011,0.012,,
374,2013-03-12T14:20:00,0.031,0.001,0.012,0.013,,
375,2013-03-12T14:30:00,0.031,0.001,0.012,0.013,,
376,2013-03-12T14:40:00,0.03,0.001,0.011,0.012,,
377,2013-03-12T14:50:00,0.031,0.001,0.011,0.012,,
378,2013-03-12T15:00:00,0.029,0.001,0.01,0.011,,
379,2013-03-12T15:10:00,0.027,0.001,0.014,0.015,,
380,2013-03-12T15:20:00,0.027,0.002,0.014,0.016,,
381,2013-03-12T15:30:00,0.028,0.002,0.015,0.017,,
382,2013-03-12T15:40:00,0.029,0.002,0.014,0.016,,
383,2013-03-12T15:50:00,0.029,0.002,0.014,0.016,,
384,2013-03-12T16:00:00,0.031,0.002,0.013,0.015,,
385,2013-03-12T16:10:00,0.03,0.002,0.012,0.014,,
386,2013-03-12T16:20:00,0.029,0.001,0.013,0.014,,
387,2013-03-12T16:30:00,0.031,0.001,0.012,0.013,,
388,2013-03-12T16:40:00,0.035,0,0.009,0.009,,
389,2013-03-12T16:50:00,0.034,0,0.008,0.008,,
390,2013-03-12T17:00:00,0.033,0,0.008,0.008,,
391,2013-03-12T17:10:00,0.03,0,0.009,0.009,,
392,2013-03-12T17:20:00,0.026,0,0.015,0.015,,
393,2013-03-12T17:30:00,0.024,0,0.017,0.017,,
394,2013-03-12T17:40:00,0.028,0.001,0.012,0.013,,
395,2013-03-12T17:50:00,0.029,0.001,0.01,0.011,,
396,2013-03-12T18:00:00,0.024,0,0.011,0.011,,
397,2013-03-12T18:10:00,0.022,0.001,0.013,0.014,,
398,2013-03-12T18:20:00,0.023,0.001,0.012,0.013,,
399,2013-03-12T18:30:00,0.021,0.001,0.011,0.012,,
400,2013-03-12T18:40:00,0.021,0,0.011,0.011,,
401,2013-03-12T18:50:00,0.021,0,0.01,0.01,,
402,2013-03-12T19:00:00,0.02,0,0.01,0.01,,
403,2013-03-12T19:10:00,0.024,0,0.007,0.007,,
404,2013-03-12T19:20:00,0.028,0,0.005,0.005,,
405,2013-03-12T19:30:00,0.029,0,0.005,0.005,,
406,2013-03-12T19:40:00,0.029,0,0.004,0.004,,
407,2013-03-12T19:50:00,0.027,0,0.004,0.004,,
408,2013-03-12T20:00:00,0.025,0,0.005,0.005,,
409,2013-03-12T20:10:00,0.021,0,0.005,0.005,,
410,2013-03-12T20:20:00,0.019,0,0.006,0.006,,
411,2013-03-12T20:30:00,0.015,0,0.006,0.006,,
412,2013-03-12T20:40:00,0.013,0,0.008,0.008,,
413,2013-03-12T20:50:00,0.013,0,0.01,0.01,,
414,2013-03-12T21:00:00,0.011,0,0.009,0.009,,
415,2013-03-12T21:10:00,0.011,0,0.009,0.009,,
416,2013-03-12T21:20:00,0.012,0,0.009,0.009,,
417,2013-03-12T21:30:00,0.016,0,0.007,0.007,,
418,2013-03-12T21:40:00,0.016,0,0.006,0.006,,
419,2013-03-12T21:50:00,0.016,0,0.005,0.005,,
420,2013-03-12T22:00:00,0.021,0,0.005,0.005,,
421,2013-03-12T22:10:00,0.021,0,0.005,0.005,,
422,2013-03-12T22:20:00,0.021,0,0.005,0.005,,
423,2013-03-12T22:30:00,0.02,0,0.005,0.005,,
424,2013-03-12T22:40:00,0.022,0,0.005,0.005,,
425,2013-03-12T22:50:00,0.02,0,0.005,0.005,,
426,2013-03-12T23:00:00,0.022,0,0.005,0.005,,
427,2013-03-12T23:10:00,0.02,0,0.005,0.005,,
428,2013-03-12T23:20:00,0.017,0,0.006,0.006,,
429,2013-03-12T23:30:00,0.014,0,0.008,0.008,,
430,2013-03-12T23:40:00,0.02,0,0.007,0.007,,
431,2013-03-12T23:50:00,0.021,0,0.005,0.005,,
432,2013-04-12T00:00:00,0.019,0,0.005,0.005,,
433,2013-04-12T00:10:00,0.018,0,0.005,0.005,,
434,2013-04-12T00:20:00,0.016,0,0.005,0.005,,
435,2013-04-12T00:30:00,0.015,0,0.005,0.005,,
436,2013-04-12T00:40:00,0.015,0,0.005,0.005,,
437,2013-04-12T00:50:00,0.016,0,0.005,0.005,,
438,2013-04-12T01:00:00,0.017,0,0.004,0.004,,
439,2013-04-12T01:10:00,0.017,0,0.003,0.003,,
440,2013-04-12T01:20:00,0.018,0,0.003,0.003,,
441,2013-04-12T01:30:00,0.018,0,0.003,0.003,,
442,2013-04-12T01:40:00,0.018,0,0.003,0.003,,
443,2013-04-12T01:50:00,0.019,0,0.002,0.002,,
444,2013-04-12T02:00:00,0.019,0,0.002,0.002,,
445,2013-04-12T02:10:00,0.019,0,0.002,0.002,,
446,2013-04-12T02:20:00,0.019,0,0.002,0.002,,
447,2013-04-12T02:30:00,0.019,0,0.001,0.001,,
448,2013-04-12T02:40:00,0.018,0,0.001,0.001,,
449,2013-04-12T02:50:00,0.018,0,0.001,0.001,,
450,2013-04-12T03:00:00,0.018,0,0.001,0.001,,
451,2013-04-12T03:10:00,0.019,0,0.001,0.001,,
452,2013-04-12T03:20:00,0.019,0,0.001,0.001,,
453,2013-04-12T03:30:00,0.018,0,0.001,0.001,,
454,2013-04-12T03:40:00,0.018,0,0.001,0.001,,
455,2013-04-12T03:50:00,0.018,0,0.001,0.001,,
456,2013-04-12T04:00:00,0.018,0,0.001,0.001,,
457,2013-04-12T04:10:00,0.019,0,0.001,0.001,,
458,2013-04-12T04:20:00,0.018,0,0.001,0.001,,
459,2013-04-12T04:30:00,0.018,0,0.001,0.001,,
460,2013-04-12T04:40:00,0.019,0,0.001,0.001,,
461,2013-04-12T04:50:00,0.02,0,0.001,0.001,,
462,2013-04-12T05:00:00,0.021,0,0.001,0.001,,
463,2013-04-12T05:10:00,0.021,0,0.001,0.001,,
464,2013-04-12T05:20:00,0.02,0,0.002,0.002,,
465,2013-04-12T05:30:00,0.02,0,0.002,0.002,,
466,2013-04-12T05:40:00,0.019,0,0.002,0.002,,
467,2013-04-12T05:50:00,0.019,0,0.003,0.003,,
468,2013-04-12T06:00:00,0.02,0,0.003,0.003,,
469,2013-04-12T06:10:00,0.02,0,0.003,0.003,,
470,2013-04-12T06:20:00,0.021,0,0.003,0.003,,
471,2013-04-12T06:30:00,0.02,0,0.003,0.003,,
472,2013-04-12T06:40:00,0.02,0,0.004,0.004,,
473,2013-04-12T06:50:00,0.02,0,0.004,0.004,,
474,2013-04-12T07:00:00,0.021,0,0.004,0.004,,
475,2013-04-12T07:10:00,0.02,0,0.004,0.004,,
476,2013-04-12T07:20:00,0.019,0,0.004,0.004,,
477,2013-04-12T07:30:00,0.02,0,0.004,0.004,,
478,2013-04-12T07:40:00,0.02,0.001,0.003,0.004,,
479,2013-04-12T07:50:00,0.02,0.001,0.003,0.004,,
480,2013-04-12T08:00:00,0.02,0.001,0.003,0.004,,
481,2013-04-12T08:10:00,0.02,0.001,0.003,0.004,,
482,2013-04-12T08:20:00,0.02,0.001,0.003,0.004,,
483,2013-04-12T08:30:00,0.021,0.001,0.003,0.004,,
484,2013-04-12T08:40:00,0.02,0.001,0.003,0.004,,
485,2013-04-12T08:50:00,0.021,0.001,0.002,0.003,,
486,2013-04-12T09:00:00,0.021,0.001,0.002,0.003,,
487,2013-04-12T09:10:00,0.021,0.001,0.002,0.003,,
488,2013-04-12T09:20:00,0.021,0,0.003,0.003,,
489,2013-04-12T09:30:00,0.02,0,0.002,0.002,,
490,2013-04-12T09:40:00,0.02,0,0.002,0.002,,
491,2013-04-12T09:50:00,0.02,0,0.002,0.002,,
492,2013-04-12T10:00:00,0.02,0.001,0.002,0.003,,
493,2013-04-12T10:10:00,0.02,0.001,0.001,0.002,,
494,2013-04-12T10:20:00,0.02,0,0.002,0.002,,
495,2013-04-12T10:30:00,0.02,0,0.002,0.002,,
496,2013-04-12T10:40:00,0.02,0,0.002,0.002,,
497,2013-04-12T10:50:00,0.02,0.001,0.002,0.003,,
498,2013-04-12T11:00:00,0.02,0,0.002,0.002,,
499,2013-04-12T11:10:00,0.02,0,0.002,0.002,,
500,2013-04-12T11:20:00,0.021,0,0.002,0.002,,
501,2013-04-12T11:30:00,0.02,0,0.002,0.002,,
502,2013-04-12T11:40:00,0.02,0.001,0.001,0.002,,
503,2013-04-12T11:50:00,0.02,0.001,0.002,0.003,,
504,2013-04-12T12:00:00,0.02,0,0.003,0.003,,
505,2013-04-12T12:10:00,0.02,0,0.002,0.002,,
506,2013-04-12T12:20:00,0.02,0,0.002,0.002,,
507,2013-04-12T12:30:00,0.02,0,0.002,0.002,,
508,2013-04-12T12:40:00,0.02,0,0.002,0.002,,
509,2013-04-12T12:50:00,0.02,0,0.002,0.002,,
510,2013-04-12T13:00:00,0.021,0,0.002,0.002,,
511,2013-04-12T13:10:00,0.02,0,0.002,0.002,,
512,2013-04-12T13:20:00,0.02,0,0.002,0.002,,